Flag for Germany Weather past 2 weeks in Buchholz in der Nordheide, Lower Saxony, Germany

57 °F


Feels Like: 56 °F
Forecast: 54 / 59 °F
Wind: 6 mph from Southeast

Location: Hamburg-Finkenwerder

Current Time: Oct 7, 2015 at 9:43:16 PM

Latest Report: Oct 7, 2015 at 8:50 PM

Visibility: 1 mi

Pressure: 29.92 "Hg

Humidity: 100%

Dew point: 57 °F

Location of Buchholz in der NordheideLocation

Historic Weather in Buchholz in der Nordheide — Graph


Buchholz in der Nordheide temperature yesterday

Maximum temperature yesterday: 59 °F (at 1:50 PM)
Minimum temperature yesterday: 54 °F (at 6:50 AM)
Average temperature yesterday: 56 °F

Past Weeks' High & Low Weather Summary

High66 °F (Oct 5, 1:50 PM)100% (Sep 22, 8:20 PM)30.72 "Hg (Sep 22, 8:20 PM)
Low39 °F (Sep 29, 6:20 AM)52% (Sep 29, 2:50 PM)29.53 "Hg (Sep 22, 8:20 PM)
Average56 °F84%30.19 "Hg
* Reported Sep 22 8:20 PM — Oct 7 8:20 PM, Buchholz in der Nordheide, Weather by CustomWeather, © 2015

Note: Actual official high and low records may vary slightly from our data, if they occured in-between our weather recording intervals... More about our weather records


Buchholz in der Nordheide weather history for previous 24 hours

Time TempWeatherWind HumidityBarometerVisibility
8:20 PM
Wed, Oct 7
57 °FFog.6 mph100%29.92 "Hg1 mi
7:50 PM57 °FFog.7 mph100%29.92 "Hg2 mi
7:20 PM57 °FFog.7 mph100%29.89 "Hg2 mi
6:50 PM57 °FDrizzle. Partly sunny.6 mph100%29.89 "Hg2 mi
6:20 PM57 °FDrizzle. Fog.7 mph100%29.89 "Hg2 mi
5:50 PM57 °FLight rain. Fog.7 mph100%29.89 "Hg2 mi
5:20 PM57 °FFog.7 mph100%29.86 "Hg2 mi
4:50 PM57 °FDrizzle. Fog.5 mph100%29.86 "Hg2 mi
4:20 PM57 °FLight rain. Fog.7 mph100%29.89 "Hg1 mi
3:50 PM57 °FDrizzle. Fog.7 mph100%29.86 "Hg2 mi
3:20 PM57 °FFog.7 mph100%29.86 "Hg3 mi
2:50 PM57 °FPartly sunny.7 mph100%29.86 "Hg4 mi
2:20 PM57 °FPartly sunny.8 mph100%29.86 "Hg4 mi
1:50 PM57 °FPartly sunny.9 mph100%29.86 "Hg4 mi
1:20 PM57 °FPartly sunny.7 mph100%29.86 "Hg4 mi
12:50 PM57 °FPartly sunny.7 mph100%29.86 "Hg4 mi
12:20 PM55 °FLight rain. Fog.7 mph100%29.83 "Hg3 mi
11:50 AM55 °FLight rain. Fog.7 mph100%29.83 "Hg2 mi
11:20 AM55 °FLight rain. Fog.8 mph100%29.83 "Hg2 mi
10:50 AM55 °FLight rain. Fog.9 mph100%29.83 "Hg2 mi
10:20 AM55 °FLight rain. Fog.10 mph100%29.83 "Hg2 mi
9:50 AM55 °FLight rain. Fog.8 mph100%29.80 "Hg2 mi
9:20 AM55 °FLight rain. Fog.9 mph100%29.80 "Hg2 mi
8:50 AM55 °FLight rain. Fog.9 mph100%29.80 "Hg2 mi
8:20 AM55 °FLight rain. Fog.10 mph100%29.80 "Hg2 mi
7:50 AM55 °FLight rain. Fog.9 mph100%29.77 "Hg2 mi
7:20 AM55 °FLight rain. Fog.9 mph100%29.77 "Hg3 mi
6:50 AM55 °FLight rain. Partly cloudy.12 mph100%29.77 "Hg4 mi
6:20 AM55 °FLight rain. Fog.10 mph100%29.77 "Hg3 mi
5:50 AM57 °FLight rain. Passing clouds.9 mph100%29.74 "Hg4 mi
Weather by CustomWeather, © 2015

See weather overviewHow to use our weather pages